Regional Weather Roundup
Issued by NWS

Home | Current Version | Previous Version | Text Only | Print | Product List | Glossary On
Versions: 1 2 3 4 5 6 7 8 9 10 11 12 13 14 15 16 17 18 19 20 21 22 23 24 25 26 27 28 29 30 31 32 33 34 35 36 37 38 39 40 41 42 43 44 45 46 47 48 49 50
000
ASUS42 KTBW 051210
RWRFL
FLORIDA REGIONAL WEATHER ROUNDUP
NATIONAL WEATHER SERVICE TAMPA BAY RUSKIN FL
700 AM EST THU MAR 05 2015

NOTE: "FAIR" INDICATES FEW OR NO CLOUDS BELOW 12,000 FEET WITH NO
SIGNIFICANT WEATHER AND/OR OBSTRUCTIONS TO VISIBILITY.


FLZ001>010-012>015-112-114-115-051300-
PANHANDLE FLORIDA

CITY           SKY/WX    TMP DP  RH WIND       PRES   REMARKS
PENSACOLA      FOG       67  67 100 S13       29.95S VSB 1/4
PENSACOLA NAS  FOG       66  66 100 S10       29.95S VSB 1/8
MILTON NAS     FOG       69  68  96 S12       29.95S VSB 3/4
CRESTVIEW      CLOUDY    71  69  93 S13       29.97S
DUKE FIELD     CLOUDY    70  68  94 S12       29.96R FOG
VALPARAISO     FOG       66  66 100 SW6       29.96R VSB 1/4
MARY ESTHER    FOG       68  63  84 S10       29.96R VSB 1/4
TRI COUNTY     CLOUDY    70  67  90 VRB7      29.98R
PANAMA CITY    FOG       70  68  94 S7        29.98R VSB 1/4
TYNDALL AFB    FOG       66  66 100 S10       30.00R VSB 1/2
APALACHICOLA   CLOUDY    68  65  90 S6        30.02S FOG

STATION/POSITION SKY/WX   TEMP    WIND        PRES    WAVE   SWELL
                          AIR SEA DIR/SP/G            HT/PER HT/PER
                          (F)     (DEG/KT/KT) (MB)    (FT/S) (FT/S)
30.1N   87.6W              67 65  170/ 12/ 14 1013.4F   3/ 6   2/ 7
29.2N   88.2W              73 71  190/ 12/ 14 1014.6R   5/ 7   3/ 7
28.7N   86.0W              72 71  200/  6/  8 1016.8R   4/ 6   3/ 6
PANAMA CITY BEAC           63 61  150/  5/  6 1015.3R
CAPE SAN BLAS    NOT AVBL
TOWER C                    68     170/ 18/ 19 1016.6S
28.5N   84.5W              70 68  190/  8/ 10 1017.8R   4/ 6   3/ 6

$$
FLZ011-016>038-118-127-128-134-139-239-051300-
NORTH FLORIDA

CITY           SKY/WX    TMP DP  RH WIND       PRES   REMARKS
MARIANNA       CLOUDY    69  69 100 S9        29.98R
TALLAHASSEE    CLOUDY    69  66  90 SE5       30.02S
CROSS CITY       N/A     59  58  96 CALM      30.08R
LAKE CITY      FAIR      61  61 100 CALM      30.09R FOG
GAINESVILLE    CLEAR     64  63  96 CALM      30.08R
MAYPORT NAS    MOCLDY    62  61  96 S3        30.08R FOG
JACKSONVILLE   MOCLDY    61  61 100 W3        30.08R
JAX NAS        MOCLDY    67  63  87 S7        30.09R
JAX CRAIG      CLEAR     62  60  93 CALM      30.08R
JAX CECIL      PTCLDY    59  59 100 S3        30.08R
FERNANDINA BEA CLOUDY    68  64  88 CALM      30.06R
ST AUGUSTINE   PTCLDY    67  65  93 SW6       30.09R

STATION/POSITION SKY/WX   TEMP    WIND        PRES    WAVE   SWELL
                          AIR SEA DIR/SP/G            HT/PER HT/PER
                          (F)     (DEG/KT/KT) (MB)    (FT/S) (FT/S)
SHELL POINT                65     180/  5/  5   N/A
KEATON BEACH               65     180/  2/  3 1018.5R
CEDAR KEY                  66     200/  4/  4 1018.4R
FERNANDINA                 63 57  180/  2/  3 1017.7R
30.7N   81.3W                 55                N/A     3/ 6
MAYPORT                    63 58  190/  2/  3 1018.5R
31.4N   80.9W              57 54  200/  8/ 10 1018.0R   4/ 6   3/ 6
ST AUGUSTINE               60     190/  6/  7 1019.4R

$$
FLZ040-043>046-052-053-057-058-063-144-051300-
INTERIOR CENTRAL FLORIDA

CITY           SKY/WX    TMP DP  RH WIND       PRES   REMARKS
OCALA          MOCLDY    59  57  94 CALM      30.10R FOG
THE VILLAGES     N/A     64  64 100 CALM      30.00R FOG
LEESBURG       CLOUDY    70  68  93 S9        30.09R
SANFORD        CLOUDY    69  67  93 S7        30.08R
ORLANDO EXEC   CLOUDY    70  68  93 S10       30.08R
ORLANDO INTL   FOG       70  69  97 S8        30.09R VSB 1/2
KISSIMMEE      CLOUDY    72  70  94 S8        30.09
WINTER HAVEN   CLOUDY    70  68  93 S7        30.09R
LAKELAND       CLOUDY    70  68  94 S12       30.08R FOG
BARTOW         CLOUDY    66 N/A N/A S7        30.09R
OKEECHOBEE     CLEAR     70  68  94 S9        30.09R

$$
FLZ041-047-054-059-064-141-147-051300-
EAST CENTRAL FLORIDA

CITY           SKY/WX    TMP DP  RH WIND       PRES   REMARKS
ORMOND BEACH   CLOUDY    63  63 100 CALM      30.09  FOG
DAYTONA BEACH  CLOUDY    66  65  96 SW3       30.10R FOG
DELAND           N/A    N/A N/A N/A S5        30.10R
NEW SMYRNA BEA CLOUDY    63  63 100 SW6       30.09  VSB 1/2
JFK SPACE CTR  CLEAR     63  61  94 S5        30.08R FOG
TITUSVILLE     FOG       59  59 100 CALM      30.09  VSB 1/2
CAPE CANAVERAL CLEAR     67  66  96 S5        30.08R
PATRICK AFB    CLEAR     70  69  98 S8        30.08
MELBOURNE      CLEAR     68  67  96 S5        30.08R
VERO BEACH     CLEAR     71  65  81 S8        30.09R
FT PIERCE      CLEAR     69  67  93 S5        30.09R
STUART         PTCLDY    70  66  88 SE9       30.10R

STATION/POSITION SKY/WX   TEMP    WIND        PRES    WAVE   SWELL
                          AIR SEA DIR/SP/G            HT/PER HT/PER
                          (F)     (DEG/KT/KT) (MB)    (FT/S) (FT/S)
28.5N   80.2W              72 72  180/ 10/ 12 1018.7R
28.9N   78.5W              74 74  170/ 16/ 17 1019.7R   4/11   3/11
TRIDENT PIER               66 69  140/  3/  5 1019.1R
28.4N   80.5W                 67                N/A     3/ 5   2/11
27.6N   80.2W                 74                N/A     4/ 5   2/11

$$
FLZ050-056-061-142-242-148-248-149-249-151-251-155-255-
160-260-051300-
WEST CENTRAL FLORIDA

CITY           SKY/WX    TMP DP  RH WIND       PRES   REMARKS
CRYSTAL RIVER  PTSUNNY   57  55  94 CALM      30.09R
INVERNESS      CLOUDY    61  61 100 CALM      30.10R
BROOKSVILLE    CLOUDY    65  64  97 S3        30.10R
ZEPHYRHILLS    CLOUDY    68  68 100 S6        30.10R
CLEARWATER     MOCLDY    65  64  97 CALM      30.08R
TAMPA INTL     CLOUDY    69  66  90 SE7       30.08R FOG
TAMPA EXEC     CLOUDY    70  68  94 S5        30.09R
PLANT CITY     CLOUDY   N/A N/A N/A S8        30.10R
MACDILL AFB    CLOUDY    68  68 100 S7        30.08R
PETER O KNIGHT CLOUDY    72  70  94 S9        30.08R
ST PETERSBURG  FOG       66  65  96 S6        30.06R VSB 1/4
SARASOTA       PTCLDY    63  63 100 SE6       30.06R FOG
VENICE         FAIR      68  68 100 SE6       30.07S

STATION/POSITION SKY/WX   TEMP    WIND        PRES    WAVE   SWELL
                          AIR SEA DIR/SP/G            HT/PER HT/PER
                          (F)     (DEG/KT/KT) (MB)    (FT/S) (FT/S)
CEDAR KEY                  66     200/  4/  4 1018.4R
28.5N   84.5W              70 68  190/  8/ 10 1017.8R   4/ 6   3/ 6
27.3N   84.3W                 71                N/A     4/ 7
CLEARWATER BEACH           67 65  120/  5/  7 1018.3R
MIDDLE TAMPA BAY           66     140/  5/  6 1018.3R
VENICE                     69 69  120/  6/  8 1017.7R

$$
FLZ066-069-070-075>078-162-262-165-265-051300-
SOUTHWEST FLORIDA AND KEYS

CITY           SKY/WX    TMP DP  RH WIND       PRES   REMARKS
PUNTA GORDA    CLEAR     66  66 100 SE6       30.09R
FT MYERS       CLEAR     68  68 100 SE6       30.06R
SOUTHWEST INTL CLEAR     67  66  97 SE7       30.07R
NAPLES         CLEAR     68  68 100 SE6       30.07R
MARCO ISLAND   SUNNY     66  64  94 E6        30.07R
IMMOKALEE      PTSUNNY  N/A N/A N/A SE6       30.09R VSB 0
MARATHON       CLEAR     76  72  87 SE9       30.07R
KEY WEST NAS   CLEAR     75  71  87 SE15      30.05R
KEY WEST INTL  CLEAR     76  72  87 SE15      30.05R

STATION/POSITION SKY/WX   TEMP    WIND        PRES    WAVE   SWELL
                          AIR SEA DIR/SP/G            HT/PER HT/PER
                          (F)     (DEG/KT/KT) (MB)    (FT/S) (FT/S)
VENICE                     69 69  120/  6/  8 1017.7R
NAPLES                     69 69  120/  4/  7 1017.9R
26.0N   85.6W              77 77  170/ 12/ 14 1016.7R   5/ 7   3/ 7
DRY TORTUGAS               75     140/ 14/ 15 1016.5R
NW FL BAY                  77     160/ 15/ 18 1017.9R
SAND KEY                   76     140/ 18/ 20 1017.4R
SOMBRERO KEY               76     140/ 15/ 17 1019.0R
LONG KEY                   76 77  150/ 16/ 18 1018.4R
MOLASSES REEF              76 75  150/ 13/ 14 1018.8R

$$
FLZ067-068-071>074-168-172>174-051300-
SOUTHEAST FLORIDA

CITY           SKY/WX    TMP DP  RH WIND       PRES   REMARKS
W PALM BEACH   PTCLDY    75  68  78 SE12      30.08R
FT LAUDER-EXEC CLEAR     75  70  84 SE13      30.09R
FT LAUDERDALE  PTCLDY    74  70  87 S14       30.08R
POMPANO BEACH  CLEAR     75  68  78 SE16      30.09R
PEMBROKE PINES PTCLDY    75  68  78 SE12      30.10S
OPA LOCKA      PTCLDY    75  68  78 SE12      30.10R
MIAMI          PTCLDY    75  69  81 SE9       30.09R
WEST KENDALL   PTCLDY    73  69  87 SE8       30.09R
HOMESTEAD      CLEAR     75  69  82 SE8       30.09R

STATION/POSITION SKY/WX   TEMP    WIND        PRES    WAVE   SWELL
                          AIR SEA DIR/SP/G            HT/PER HT/PER
                          (F)     (DEG/KT/KT) (MB)    (FT/S) (FT/S)
PORT EVERGLADES            76     140/ 10/ 15 1018.8
VIRGINIA KEY               76 76  150/ 12/ 15 1018.8R


USA.gov is the U.S. government's official web portal to all federal, state and local government web resources and services.